BEIDOU-3 M21

Last updated on Dec. 12, 2019, 4:25 a.m. UTC

1 44793U 19078A   19345.47444779 -.00000064  00000-0  10000-3 0  9995
2 44793  54.9894  22.2446 0115108 177.8958 337.3268  1.82875557   335
UTC
Height (km)
Latitude
Longitude
Inclination
Orbital Period
UTC large
Height (km)
Speed (km/s)
/
Latitude / Longitude
Inclination (degrees)
Orbital Period (minutes)
Azimuth
Elevation
Range (km)
Doppler Factor
iOS Compass Heading
iOS Angle

Next 30 passes for location: Hong Kong

Rise time Rise Azimuth (degrees) Set time Set Azimuth (degrees) Duration Max altitude (degrees)

No matching passes for this satellites